Regional Weather Roundup
Issued by NWS

Home | Current Version | Previous Version | Text Only | Print | Product List | Glossary On
Versions: 1 2 3 4 5 6 7 8 9 10 11 12 13 14 15 16 17 18 19 20 21 22 23 24 25 26 27
000
ASUS46 KPQR 191910
RWROR

OREGON REGIONAL WEATHER ROUNDUP
NATIONAL WEATHER SERVICE PORTLAND OR
1200 PM PDT TUE SEP 19 2017

NOTE: "FAIR" INDICATES FEW OR NO CLOUDS BELOW 12,000 FEET WITH
NO SIGNIFICANT WEATHER AND/OR OBSTRUCTIONS TO VISIBILITY.

ORZ001>013-192000-
NORTHWEST OREGON


CITY           SKY/WX    TMP DP  RH WIND       PRES   REMARKS
ASTORIA        CLOUDY    60  52  74 SW12      29.80R
NEWPORT        PTSUNNY   59  54  82 SW15      29.95R HAZE
PORTLAND       LGT RAIN  59  52  77 SW13      29.85S
VANCOUVER WA   LGT RAIN  59  53  80 S8        29.85R
SCAPPOOSE      PTSUNNY   60  53  77 SW12      29.83R
HILLSBORO      CLOUDY    58  52  80 SW12      29.85R
AURORA         LGT RAIN  57  51  80 S15G22    29.88R
MCMINNVILLE    LGT RAIN  57  55  93 SW8       29.88R
SALEM          PTSUNNY   60  53  77 S10       29.89R
EUGENE         LGT RAIN  57  52  83 SW12G21   29.95R
$$

ORZ021-028-192000-
SOUTHWEST OREGON


CITY           SKY/WX    TMP DP  RH WIND       PRES   REMARKS
NORTH BEND     CLOUDY    64  56  75 SW13      30.00S
BROOKINGS      CLOUDY    59  54  83 SE7       30.07S
ROSEBURG       PTSUNNY   62  50  64 MISG      29.99S
SEXTON SUMMIT  CLOUDY    44  43  96 SW8       30.03S FOG
GRANTS PASS    FAIR      55  52  88 SE5       30.07F
MEDFORD        LGT RAIN  56  50  80 N6        30.03F
$$

ORZ014>016-041-192000-
COLUMBIA GORGE


CITY           SKY/WX    TMP DP  RH WIND       PRES   REMARKS
TROUTDALE      PTSUNNY   60  51  72 SW16      29.85S
HOOD RIVER     LGT RAIN  54  48  82 NW7       29.83R
THE DALLES     CLOUDY    60  48  64 NW10      29.81R
$$

ORZ029>031-041-044-049-050-061>064-502-503-505>511-192000-
EASTERN OREGON


CITY           SKY/WX    TMP DP  RH WIND       PRES   REMARKS
MADRAS         CLOUDY    54  54 100 S16G23    29.89S
REDMOND        CLOUDY    48  40  73 W16       29.91F
BEND           PTSUNNY   46  39  76 NW9       29.93R
PRINEVILLE     PTSUNNY   45  41  87 W16       29.92F
KLAMATH FALLS  PTSUNNY   52  38  58 W16G25    30.01S
LAKEVIEW       CLOUDY    49  34  56 S17G23    30.01F
HERMISTON      LGT RAIN  55  47  74 W7        29.80S
PENDLETON      LGT RAIN  54  41  61 SW20      29.80R
JOHN DAY       PTSUNNY   50  38  63 W6        29.88F
MEACHAM        LGT RAIN  44  40  85 CALM      29.81S
LA GRANDE      CLOUDY    51  38  60 VRB3      29.84R
BAKER CITY     CLOUDY    54  34  46 S8        29.83S
BURNS          CLOUDY    51  32  48 SW22G29   29.91F
ROME             N/A     55  30  38 SW21G28   29.93F
ONTARIO        CLOUDY    60  36  40 SW16      29.88S
$$




USA.gov is the U.S. government's official web portal to all federal, state and local government web resources and services.